TimeCST,TemperatureF,Dew PointF,Humidity,Sea Level PressureIn,VisibilityMPH,Wind Direction,Wind SpeedMPH,Gust SpeedMPH,PrecipitationIn,Events,Conditions,WindDirDegrees,DateUTC
12:15 AM,25.2,9.3,51,29.92,10.0,South,13.8,19.6,N/A,,Overcast,190,2013-12-30 06:15:00
12:35 AM,26.1,9.5,50,29.91,10.0,SSW,20.7,26.5,N/A,,Overcast,200,2013-12-30 06:35:00
12:55 AM,26.2,10.2,51,29.91,10.0,SSW,16.1,-,N/A,,Overcast,200,2013-12-30 06:55:00
1:15 AM,26.6,10.4,51,29.91,10.0,SSW,16.1,24.2,N/A,,Overcast,210,2013-12-30 07:15:00
1:35 AM,26.6,10.8,51,29.92,10.0,West,4.6,-,N/A,,Overcast,270,2013-12-30 07:35:00
1:55 AM,26.6,10.9,52,29.92,10.0,West,3.5,-,N/A,,Overcast,260,2013-12-30 07:55:00
2:15 AM,26.6,11.3,53,29.92,10.0,Calm,Calm,-,N/A,,Overcast,0,2013-12-30 08:15:00
2:35 AM,26.8,11.7,53,29.92,10.0,Calm,Calm,-,N/A,,Overcast,0,2013-12-30 08:35:00
2:55 AM,27.1,12.2,53,29.92,10.0,SW,3.5,-,N/A,,Overcast,220,2013-12-30 08:55:00
3:15 AM,27.5,12.7,54,29.91,10.0,SW,3.5,-,N/A,,Overcast,220,2013-12-30 09:15:00
3:35 AM,26.8,12.7,56,29.91,10.0,Calm,Calm,-,N/A,,Scattered Clouds,0,2013-12-30 09:35:00
3:55 AM,25.7,12.7,58,29.92,10.0,Calm,Calm,-,N/A,,Clear,0,2013-12-30 09:55:00
4:15 AM,24.6,12.7,61,29.92,10.0,Calm,Calm,-,N/A,,Clear,0,2013-12-30 10:15:00
4:35 AM,24.1,13.1,63,29.92,10.0,WSW,4.6,-,N/A,,Clear,240,2013-12-30 10:35:00
4:55 AM,22.8,13.6,68,29.92,10.0,WSW,4.6,-,N/A,,Scattered Clouds,240,2013-12-30 10:55:00
5:15 AM,23.5,14.9,70,29.93,10.0,West,5.8,-,N/A,,Overcast,280,2013-12-30 11:15:00
5:35 AM,24.4,16.2,71,29.93,10.0,West,6.9,-,N/A,,Overcast,280,2013-12-30 11:35:00
5:55 AM,26.1,17.8,71,29.93,10.0,West,6.9,-,N/A,,Overcast,280,2013-12-30 11:55:00
6:15 AM,27.9,19.4,71,29.93,10.0,WNW,8.1,-,N/A,,Overcast,290,2013-12-30 12:15:00
6:35 AM,28.2,20.5,73,29.94,10.0,WNW,6.9,-,N/A,,Mostly Cloudy,300,2013-12-30 12:35:00
6:55 AM,30.4,22.3,72,29.95,10.0,West,9.2,-,N/A,,Overcast,280,2013-12-30 12:55:00
7:15 AM,30.9,23.0,72,29.96,10.0,WNW,8.1,-,N/A,,Mostly Cloudy,290,2013-12-30 13:15:00
7:35 AM,32.7,23.9,70,29.97,10.0,WNW,10.4,-,N/A,,Overcast,290,2013-12-30 13:35:00
7:55 AM,33.8,23.7,67,29.97,10.0,WNW,11.5,-,N/A,,Overcast,290,2013-12-30 13:55:00
8:15 AM,34.2,23.7,66,29.98,10.0,WNW,11.5,-,N/A,,Overcast,290,2013-12-30 14:15:00
8:35 AM,34.3,23.9,66,29.98,10.0,WNW,8.1,-,N/A,,Overcast,290,2013-12-30 14:35:00
8:55 AM,34.3,24.1,66,29.99,10.0,WNW,6.9,-,N/A,,Overcast,290,2013-12-30 14:55:00
9:15 AM,35.2,24.6,65,30.00,10.0,West,8.1,-,N/A,,Overcast,280,2013-12-30 15:15:00
9:35 AM,36.5,25.2,64,30.02,10.0,WNW,8.1,-,N/A,,Overcast,290,2013-12-30 15:35:00
9:55 AM,37.8,25.5,61,30.03,10.0,WNW,9.2,-,N/A,,Overcast,300,2013-12-30 15:55:00
10:15 AM,38.7,25.7,60,30.04,10.0,NW,9.2,-,N/A,,Overcast,310,2013-12-30 16:15:00
10:35 AM,39.2,26.1,59,30.05,10.0,WNW,12.7,20.7,N/A,,Overcast,290,2013-12-30 16:35:00
10:55 AM,39.6,26.8,60,30.05,10.0,WNW,13.8,23.0,N/A,,Overcast,300,2013-12-30 16:55:00
11:15 AM,40.3,27.1,59,30.07,10.0,WNW,13.8,18.4,N/A,,Overcast,300,2013-12-30 17:15:00
11:35 AM,41.5,26.8,56,30.07,10.0,NW,17.3,24.2,N/A,,Overcast,310,2013-12-30 17:35:00
11:55 AM,41.9,26.4,54,30.07,10.0,NW,18.4,26.5,N/A,,Overcast,310,2013-12-30 17:55:00
12:15 PM,42.8,26.4,52,30.07,10.0,NNW,25.3,29.9,N/A,,Overcast,330,2013-12-30 18:15:00
12:35 PM,41.7,25.9,53,30.07,10.0,NW,20.7,34.5,N/A,,Overcast,310,2013-12-30 18:35:00
12:55 PM,41.9,26.2,54,30.08,10.0,NW,18.4,27.6,N/A,,Overcast,320,2013-12-30 18:55:00
1:15 PM,41.7,25.9,53,30.07,10.0,NW,18.4,25.3,N/A,,Mostly Cloudy,320,2013-12-30 19:15:00
1:35 PM,43.3,26.1,51,30.07,10.0,NNW,24.2,-,N/A,,Mostly Cloudy,330,2013-12-30 19:35:00
1:55 PM,42.1,26.2,53,30.07,10.0,NNW,26.5,33.4,N/A,,Overcast,340,2013-12-30 19:55:00
2:15 PM,41.4,27.1,57,30.08,10.0,NNW,20.7,27.6,N/A,,Scattered Clouds,330,2013-12-30 20:15:00
2:55 PM,41.0,25.9,55,30.09,10.0,NNW,23.0,31.1,N/A,,Clear,330,2013-12-30 20:55:00
3:15 PM,40.5,25.7,56,30.10,10.0,NW,21.9,29.9,N/A,,Clear,320,2013-12-30 21:15:00
3:35 PM,40.5,25.7,56,30.11,10.0,NNW,20.7,26.5,N/A,,Clear,340,2013-12-30 21:35:00
3:55 PM,39.2,25.7,58,30.12,10.0,NW,17.3,26.5,N/A,,Clear,320,2013-12-30 21:55:00
4:15 PM,39.4,25.7,58,30.12,10.0,NNW,23.0,-,N/A,,Clear,330,2013-12-30 22:15:00
4:35 PM,38.3,24.3,57,30.13,10.0,NNW,17.3,23.0,N/A,,Clear,330,2013-12-30 22:35:00
4:55 PM,36.9,24.6,61,30.14,10.0,North,9.2,-,N/A,,Clear,350,2013-12-30 22:55:00
5:15 PM,34.5,24.6,67,30.14,10.0,North,6.9,-,N/A,,Clear,350,2013-12-30 23:15:00
5:35 PM,32.9,23.9,69,30.14,10.0,NNW,8.1,-,N/A,,Clear,340,2013-12-30 23:35:00
5:55 PM,31.6,23.5,72,30.13,10.0,NNW,6.9,-,N/A,,Clear,340,2013-12-30 23:55:00
6:15 PM,31.6,23.7,73,30.14,10.0,NNW,6.9,-,N/A,,Clear,340,2013-12-31 00:15:00
6:35 PM,29.5,22.8,76,30.15,10.0,SW,5.8,-,N/A,,Clear,230,2013-12-31 00:35:00
6:55 PM,28.9,22.6,77,30.16,10.0,West,3.5,-,N/A,,Scattered Clouds,280,2013-12-31 00:55:00
7:15 PM,29.3,23.0,77,30.16,10.0,Calm,Calm,-,N/A,,Scattered Clouds,0,2013-12-31 01:15:00
7:35 PM,27.9,22.1,79,30.17,10.0,Calm,Calm,-,N/A,,Mostly Cloudy,0,2013-12-31 01:35:00
7:55 PM,27.0,22.8,84,30.17,10.0,Calm,Calm,-,N/A,,Overcast,0,2013-12-31 01:55:00
8:15 PM,27.0,22.3,83,30.17,10.0,Calm,Calm,-,N/A,,Mostly Cloudy,0,2013-12-31 02:15:00
8:35 PM,24.8,21.0,86,30.16,10.0,East,3.5,-,N/A,,Scattered Clouds,90,2013-12-31 02:35:00
8:55 PM,24.6,21.2,87,30.15,10.0,Calm,Calm,-,N/A,,Scattered Clouds,0,2013-12-31 02:55:00
9:15 PM,23.9,20.7,87,30.15,10.0,SE,3.5,-,N/A,,Scattered Clouds,140,2013-12-31 03:15:00
9:35 PM,23.0,19.8,87,30.15,10.0,Calm,Calm,-,N/A,,Clear,0,2013-12-31 03:35:00
9:55 PM,22.6,19.4,87,30.14,10.0,SSE,3.5,-,N/A,,Clear,150,2013-12-31 03:55:00
10:15 PM,22.6,19.0,86,30.14,10.0,East,4.6,-,N/A,,Clear,90,2013-12-31 04:15:00
10:35 PM,19.9,16.7,87,30.14,10.0,SSE,3.5,-,N/A,,Clear,150,2013-12-31 04:35:00
10:55 PM,21.9,19.2,89,30.13,10.0,SSE,4.6,-,N/A,,Clear,150,2013-12-31 04:55:00
11:15 PM,20.8,17.6,87,30.13,10.0,Calm,Calm,-,N/A,,Clear,0,2013-12-31 05:15:00
11:35 PM,23.0,19.4,86,30.13,10.0,South,6.9,-,N/A,,Clear,180,2013-12-31 05:35:00
11:55 PM,21.2,17.8,87,30.12,10.0,Calm,Calm,-,N/A,,Clear,0,2013-12-31 05:55:00